Weather History for Prerov, Czech Republic

Change the Weather History Date:

Friday, October 5, 2012

  Actual Average Record
Temperature  
Mean Temperature 50 °F -  
Max Temperature 60 °F - - ()
Min Temperature 41 °F - - ()
Degree Days  
Heating Degree Days 14    
Moisture  
Dew Point 45 °F    
Average Humidity 75    
Maximum Humidity 93    
Minimum Humidity 59    
Precipitation  
Precipitation 0.00 in - - ()
Sea Level Pressure  
Sea Level Pressure 30.07 in    
Wind  
Wind Speed 7 mph ()    
Max Wind Speed 14 mph    
Max Gust Speed -    
Visibility 6.2 miles    
Events      
T = Trace of Precipitation, MM = Missing Value Source: Averaged Metar Reports

Daily Weather History Graph

Daily Weather History Graph

Search for Another Location

Airport:

Trip Planner

Search our weather history database for the weather conditions in past years. The results will help you decide how hot, cold, wet, or windy it might be!

Date:

Astronomy

Oct. 05, 2012 Rise Set
Actual Time 6:56 AM CEST 6:20 PM CEST
Civil Twilight 6:24 AM CEST 6:51 PM CEST
Nautical Twilight 5:47 AM CEST 7:28 PM CEST
Astronomical Twilight 5:10 AM CEST 8:06 PM CEST
Moon 9:02 PM CEST (10/5) 12:15 PM CEST (10/5)
Length of Visible Light 12h 27m
Length of Day
11h 23m
Waning Gibbous, 76% of the Moon is Illuminated
Oct 5
Waning Gibbous
Oct 8
Last Quarter
Oct 15
New
Oct 22
First Quarter
Oct 29
Full

Hourly Weather History & Observations

Time (CEST) Temp. Windchill Dew Point Humidity Pressure Visibility Wind Dir Wind Speed Gust Speed Precip Events Conditions
12:00 AM 55.4 °F - 48.2 °F 77% 30.01 in 6.2 mi WNW 13.8 mph - N/A   Partly Cloudy
1:00 AM 51.8 °F - 44.6 °F 76% 30.04 in 6.2 mi West 8.1 mph - N/A   Partly Cloudy
2:00 AM 51.8 °F - 44.6 °F 76% 30.06 in 6.2 mi West 9.2 mph - N/A   Mostly Cloudy
3:00 AM 50.0 °F - 44.6 °F 82% 30.09 in 6.2 mi Variable 1.2 mph - N/A   Mostly Cloudy
4:00 AM 46.4 °F 42.9 °F 42.8 °F 87% 30.12 in 6.2 mi West 6.9 mph - N/A   Partly Cloudy
5:00 AM 44.6 °F 40.2 °F 41.0 °F 87% 30.12 in - West 8.1 mph - N/A   Clear
6:00 AM 44.6 °F - 41.0 °F 87% 30.12 in - Calm Calm - N/A   Clear
7:00 AM 41.0 °F 39.0 °F 39.2 °F 93% 30.12 in - ESE 3.5 mph - N/A   Clear
8:00 AM 41.0 °F - 39.2 °F 93% 30.12 in - Variable 2.3 mph - N/A   Clear
9:00 AM 48.2 °F - 42.8 °F 82% 30.12 in - South 4.6 mph - N/A   Clear
10:00 AM 50.0 °F - 44.6 °F 82% 30.15 in - South 6.9 mph - N/A   Clear
11:00 AM 53.6 °F - 44.6 °F 72% 30.12 in 6.2 mi South 10.4 mph - N/A   Mostly Cloudy
12:00 PM 53.6 °F - 44.6 °F 72% 30.12 in 6.2 mi South 10.4 mph - N/A   Mostly Cloudy
1:00 PM 57.2 °F - 44.6 °F 63% 30.09 in 6.2 mi South 11.5 mph - N/A   Mostly Cloudy
2:00 PM 59.0 °F - 44.6 °F 59% 30.06 in 6.2 mi SSW 9.2 mph - N/A   Mostly Cloudy
3:00 PM 59.0 °F - 44.6 °F 59% 30.06 in - South 12.7 mph - N/A   Clear
4:00 PM 60.8 °F - 46.4 °F 59% 30.04 in - South 10.4 mph - N/A   Clear
6:00 PM 60.8 °F - 46.4 °F 59% 29.98 in - South 9.2 mph - N/A   Clear
7:00 PM 59.0 °F - 46.4 °F 63% 30.01 in - SSE 4.6 mph - N/A   Clear
8:00 PM 57.2 °F - 48.2 °F 72% 29.98 in - South 5.8 mph - N/A   Clear
9:00 PM 55.4 °F - 48.2 °F 77% 30.01 in - SSW 4.6 mph - N/A   Clear
10:00 PM 55.4 °F - 48.2 °F 77% 30.01 in - South 5.8 mph - N/A   Clear
11:00 PM 55.4 °F - 50.0 °F 82% 30.01 in - SSW 4.6 mph - N/A   Clear